Tracking 19176 objects as of 26-May-2018
HD Live streaming from Space Station
objects crossing your sky now

FENGYUN 1C DEB

Track FENGYUN 1C DEB now!
10-day predictions


NORAD ID: 29776
Int'l Code: 1999-025BS
Perigee: 860.4 km
Apogee: 896.9 km
Inclination: 99.1 °
Period: 102.4 minutes
Semi major axis: 7249 km
RCS: 0.0722 m2 (small)
Launch date: May 10, 1999
Source: People's Republic of China (PRC)
Launch site: Taiyaun Space Center, China (TSC)

Note: This is SATELLITE DEBRIS
aabbcc
Your satellite tracking list
Your tracking list is empty




NASA's NSSDC Master Catalog

Two Line Element Set (TLE):
1 29776U 99025BS  18146.01533359  .00000022  00000-0  40276-4 0  9992
2 29776  99.0845 169.6686 0025132  74.3816 306.0474 14.06463994583154
Source of the keplerian elements: AFSPC